TIME,DELAY(SENSOR),PRES,T(CTD),SAL,OXYGEN,RAWTEMP,T(OPTODE),TCPHASE,FLUOR,BETA(BETA700),BETA(BETA412),BETA(BETA440),CDOM,C(CSC),ED(ED411.90),ED(ED443.80),ED(ED489.40),ED(ED554.70),LU(LU412.20),LU(LU443.80),LU(LU489.40),LU(LU555.00),COMP,TILTX,TILTX(TILTY),CHECK
1372176082,5804,497.6700134277344000,18.0937004089355470,36.5438995361328100,228.3191070556640600,152.1558990478515600,18.0917091369628900,31.0199508666992200,50,98,93,81,66,10336,2146956443,2147516224,2147266450,2147454528,2147077156,2146950966,2147649536,2147130194,2000,-1,8,13553
1372176209,5803,486.9400024414062500,18.1732997894287100,36.5493011474609400,231.8191070556640600,149.5316009521484400,18.1709899902343750,30.8117198944091800,50,96,93,80,66,10336,2146957942,2147514477,2147267291,2147454171,2147082797,2146954459,2147648137,2147130075,1164,-1,8,36468
1372176338,5805,476.0799865722656000,18.2173004150390620,36.5494003295898440,234.9472045898437500,147.9927062988281200,18.2174797058105470,30.6396503448486330,50,95,92,81,65,10337,2146957979,2147514614,2147268544,2147453028,2147081389,2146951570,2147648731,2147129755,345,-1,8,46172
1372176465,5803,465.1799926757812500,18.2716007232666000,36.5511016845703100,239.5982055664062500,146.2908935546875000,18.2689094543457030,30.3956394195556640,50,99,92,80,65,10332,2146955300,2147514797,2147268681,2147452507,2147079716,2146954514,2147650185,2147127506,2993,-2,8,4581
1372176594,5805,453.9299926757812500,18.3337993621826170,36.5505981445312500,245.7214965820312500,143.9040985107422000,18.3410396575927730,30.0807800292968750,50,96,91,81,64,10332,2146959158,2147511332,2147268681,2147453165,2147081014,2146955584,2147646720,2147131730,331,-1,8,34677
1372176721,5806,442.8999938964844000,18.4148998260498050,36.5507011413574200,252.5155029296875000,141.6553039550781200,18.4090003967285160,29.7468395233154300,50,97,92,81,62,10327,2146956498,2147511698,2147269430,2147451931,2147076909,2146956278,2147645805,2147125293,493,-1,8,39745
1372176848,5805,432.1000061035156000,18.4645004272460940,36.5555000305175800,255.2144927978515600,139.9635925292968800,18.4601497650146500,29.6066398620605470,50,97,92,81,63,10331,2146958701,2147514770,2147262738,2147448804,2147074230,2146954870,2147651977,2147129517,464,-1,8,26300
1372176978,5807,421.1600036621094000,18.4755001068115230,36.5573997497558600,255.8937072753906200,139.6235046386718800,18.4704303741455080,29.5726795196533200,50,98,93,80,61,10335,2146958838,2147514651,2147270784,2147447305,2147080292,2146957906,2147651483,2147126308,724,-1,8,56422
1372177105,5803,410.6000061035156000,18.4832000732421880,36.5572013854980500,256.1614990234375000,139.3132019042968800,18.4798107147216800,29.5571708679199220,50,97,93,81,64,10330,2146956534,2147515053,2147264347,2147449024,2147078592,2146949796,2147647625,2147128594,3489,-1,8,38435
1372177234,5804,399.8800048828125000,18.5023002624511720,36.5625000000000000,256.3004150390625000,138.6997985839843800,18.4983501434326170,29.5431709289550780,50,98,93,81,62,10323,2146957476,2147514669,2147266971,2147451044,2147084516,2146953536,2147649252,2147128000,3276,-1,8,55930
1372177373,5805,388.4200134277344000,18.5182991027832030,36.5648994445800800,256.6004943847656000,138.1701965332031200,18.5143699645996100,29.5233001708984380,50,99,93,81,63,10324,2146957257,2147514340,2147267712,2147450560,2147075081,2146952950,2147649737,2147127396,2363,-1,8,62222
1372177514,5804,376.9100036621094000,18.5310993194580080,36.5670013427734400,256.6202087402344000,137.7500000000000000,18.5270690917968750,29.5170097351074220,50,98,93,81,63,10328,2146955876,2147515977,2147267821,2147451245,2147072566,2146956342,2147645174,2147126692,1622,-1,8,1332
1372177653,5805,365.5100097656250000,18.5256004333496100,36.5634994506835940,256.7135925292969000,137.9830932617187500,18.5200195312500000,29.5160007476806640,50,98,93,82,64,10322,2146955867,2147512292,2147269174,2147447524,2147079579,2146955309,2147650697,2147130066,1316,-1,8,52044
1372177792,5804,354.0899963378906000,18.5265998840332030,36.5596008300781250,256.6090087890625000,137.9205017089843800,18.5219192504882800,29.5195808410644530,50,99,93,81,63,10326,2146957613,2147511597,2147267904,2147449590,2147075547,2146954989,2147651017,2147129142,1455,-1,8,21781
1372177922,5803,343.4400024414062500,18.5202007293701170,36.5541992187500000,256.9140930175781000,138.1367034912109400,18.5153808593750000,29.5091304779052730,50,97,93,80,62,10330,2146957458,2147513993,2147267172,2147454025,2147075483,2146956754,2147650962,2147127689,1598,-1,8,46270
1372178061,5803,332.1099853515625000,18.5203990936279300,36.5499000549316400,257.0349121093750000,138.1219940185547000,18.5158195495605470,29.5040397644042970,50,97,92,80,63,10325,2146955337,2147512694,2147270162,2147448045,2147079049,2146964032,2147658560,2147128621,955,-1,8,47136
1372178190,5808,321.6700134277344000,18.5165004730224600,36.5471992492675800,257.5172119140625000,138.2313995361328000,18.5125198364257800,29.4844608306884770,50,100,94,80,64,10328,2146954980,2147515053,2147265536,2147452909,2147074386,2146954779,2147662400,2147128338,631,-1,8,59463
1372178329,5802,310.4800109863281000,18.5237998962402340,36.5466995239257800,257.9513854980469000,138.0084075927734400,18.5192604064941400,29.4629707336425780,50,98,92,80,64,10324,2146957110,2147515373,2147266825,2147450523,2147073764,2146957366,2147664740,2147127296,558,-1,8,45949
1372178470,5804,299.3800048828125000,18.5338001251220700,36.5486984252929700,257.9529113769531000,137.6685028076172000,18.5295295715332030,29.4585304260253900,51,99,94,81,64,10322,2146957028,2147513298,2147271094,2147448996,2147080484,2146962011,2147667392,2147133558,3421,-1,8,64889
1372178609,5806,288.7399902343750000,18.5384998321533200,36.5485000610351560,258.1177062988281000,137.5299072265625000,18.5337295532226560,29.4495792388916000,50,98,93,80,63,10320,2146956251,2147514048,2147266642,2147450678,2147074422,2146960932,2147678153,2147128320,95,-1,8,19434
1372178793,5805,274.4299926757812500,18.5471000671386720,36.5505981445312500,257.8021850585937500,137.2039947509765600,18.5435791015625000,29.4590396881103500,50,98,94,81,63,10324,2146952758,2147513600,2147266761,2147448438,2147076443,2146969645,2147687433,2147130267,2804,-1,8,6545
1372178908,5805,263.4100036621094000,18.5601005554199220,36.5508003234863300,257.6994018554687500,136.8255004882812500,18.5550308227539060,29.4585208892822270,50,98,93,80,64,10322,2146954724,2147513636,2147270016,2147451904,2147069184,2146975268,2147705316,2147130048,2547,-1,8,25128
1372179023,5804,251.6499938964843800,18.5802993774414060,36.5544013977050800,257.2937011718750000,135.9871063232422000,18.5803794860839840,29.4649906158447270,50,98,93,80,62,10323,2146958043,2147511350,2147269558,2147452333,2147071213,2146983844,2147724754,2147132022,2351,-1,8,33251
1372179129,5804,240.6600036621093800,18.6583995819091800,36.5579986572265600,257.2797851562500000,133.5673980712890600,18.6535606384277340,29.4342994689941400,50,99,93,80,63,10325,2146956809,2147513910,2147270281,2147450358,2147074596,2146998948,2147751734,2147134061,2459,-1,8,59524
1372179232,5805,230.0099945068359400,18.7329006195068360,36.5607986450195300,257.7789916992187500,130.9085998535156200,18.7339897155761720,29.3783702850341800,52,102,92,82,62,10312,2146957092,2147518016,2147269513,2147449609,2147067812,2147010825,2147771602,2147134518,2167,-2,8,7136
1372179347,5803,218.1900024414062500,18.7887001037597660,36.5638008117675800,259.5856933593750000,129.2700958251953000,18.7835597991943360,29.2799491882324220,52,98,93,81,64,10321,2146954779,2147517988,2147273846,2147447104,2147074587,2147031067,2147824484,2147139492,1960,-1,8,7334
1372179476,5804,206.4199981689453000,18.8553009033203120,36.5658988952636700,258.4573974609375000,127.1229019165039000,18.8485298156738280,29.3003807067871100,53,101,93,81,63,10313,2146959195,2147517421,2147275611,2147447433,2147078683,2147054363,2147867547,2147142482,2022,-1,8,12681
1372179591,5802,197.8399963378906200,18.9734001159667970,36.5724983215332000,254.9826049804687500,123.2919998168945300,18.9644908905029300,29.4002704620361330,55,100,94,81,63,10317,2146955501,2147516992,2147275657,2147446116,2147086171,2147090825,2147940032,2147147245,3000,-1,9,448
1372179646,5807,193.9900054931640600,18.9899997711181640,36.5732994079589840,253.6416931152343800,122.6343002319336000,18.9843997955322270,29.4501991271972660,55,101,93,82,63,10315,2146955510,2147516342,2147278226,2147445211,2147081270,2147090578,2147951670,2147147538,2644,-1,8,51369
1372179701,5804,190.1300048828125000,19.0002002716064450,36.5741996765136700,252.7872924804687500,121.6981964111328100,19.0127391815185550,29.4752807617187500,56,100,94,82,64,10312,2146957942,2147519168,2147278281,2147447707,2147089974,2147143158,2148042249,2147147474,2340,-2,9,50221
1372179784,5804,184.7899932861328000,19.1026000976562500,36.5807991027832000,250.9122009277343800,119.0410995483398400,19.0932006835937500,29.5231895446777340,57,100,94,81,65,10314,2146957184,2147520192,2147283355,2147446774,2147093568,2147177426,2148107785,2147156132,2140,-2,9,38314
1372179851,5804,181.2500000000000000,19.1005001068115230,36.5811996459960940,250.1613006591797000,118.8776016235351600,19.0981502532959000,29.5543308258056640,58,101,92,82,63,10312,2146957101,2147519515,2147284224,2147443245,2147099282,2147232265,2148223488,2147159442,1953,-2,8,7663
1372179930,5805,177.1199951171875000,19.1606998443603500,36.5856018066406250,249.1278991699218800,117.0048980712890600,19.1548690795898440,29.5760593414306640,59,100,93,80,63,10317,2146957522,2147518720,2147285037,2147447515,2147108141,2147276772,2148306761,2147166838,1361,-1,8,40390
1372179997,5806,173.5899963378906200,19.1746006011962900,36.5862007141113300,248.4597930908203000,116.5297012329101600,19.1692600250244140,29.5996704101562500,58,101,94,81,64,10313,2146956964,2147522742,2147289362,2147447369,2147111926,2147314038,2148367661,2147167268,1049,-1,9,51551
1372180078,5804,169.3800048828125000,19.1877002716064450,36.5876007080078100,248.1114959716797000,116.0876998901367200,19.1826496124267580,29.6096801757812500,58,99,93,82,65,10316,2146957385,2147523803,2147292928,2147446564,2147123501,2147367881,2148470939,2147172717,1030,-1,9,9867
1372180157,5805,165.4499969482422000,19.2775993347167970,36.5937995910644500,246.8002014160156200,112.8702011108398400,19.2801303863525400,29.6264991760253900,58,101,92,82,64,10315,2146957522,2147525184,2147295707,2147443355,2147123766,2147422592,2148560905,2147181202,1081,-1,8,55240
1372180248,5806,161.6799926757812500,19.4181003570556640,36.6030998229980500,243.4080047607422000,108.6884994506836000,19.4068698883056640,29.7259998321533200,60,101,94,81,64,10311,2146955931,2147526454,2147299876,2147445824,2147136210,2147470601,2148651849,2147185536,1428,-2,8,61431
1372180363,5804,157.8200073242187500,19.4437007904052730,36.6032981872558600,243.9286041259765600,107.4803009033203100,19.4435005187988280,29.6865196228027340,59,103,93,82,64,10314,2146953974,2147528082,2147301878,2147445860,2147149814,2147515254,2148734555,2147190308,1755,-1,8,14471
1372180481,5807,154.2299957275390600,19.5177993774414060,36.6072006225585940,243.3162994384765600,105.2282028198242200,19.5117893218994140,29.6851997375488280,59,99,94,80,63,10312,2146956772,2147529252,2147306313,2147443163,2147160347,2147555282,2148802139,2147194569,2419,-1,9,47171
1372180620,5805,150.0500030517578000,19.6651000976562500,36.6193008422851560,243.0523071289062500,100.8215026855468800,19.6454505920410160,29.6401004791259770,59,100,92,83,65,10311,2146957568,2147533970,2147310427,2147440704,2147175798,2147626084,2148922432,2147200256,3272,-1,8,33701
1372180759,5803,145.4799957275390600,19.8642997741699220,36.6335983276367200,239.3215942382812500,93.9478836059570300,19.8540706634521500,29.7227706909179700,59,102,93,80,65,10309,2146958546,2147538578,2147320228,2147445083,2147197476,2147733229,2149109238,2147211181,202,-1,9,40259
1372180850,5807,141.7899932861328000,19.9472999572753900,36.6384010314941400,240.4958953857422000,90.7396926879882800,19.9514904022216800,29.6270103454589840,62,100,93,81,65,10315,2146959040,2147536283,2147324214,2147445513,2147223817,2147837312,2149273179,2147220690,682,-1,8,9356
1372180953,5807,137.9700012207031200,20.1439990997314450,36.6567001342773440,235.6434020996093800,84.8823928833007800,20.1294593811035160,29.7775001525878900,63,102,93,81,66,10312,2146959734,2147540754,2147325906,2147443373,2147245056,2147930834,2149423186,2147234212,1409,-2,8,49897
1372181072,5806,133.3800048828125000,20.2521991729736330,36.6554985046386700,236.1087036132812500,81.1812667846679700,20.2419700622558600,29.7076606750488280,64,114,95,81,65,10306,2146962907,2147543542,2147329261,2147442358,2147278811,2148028242,2149565440,2147241773,1588,-1,8,38087
1372181151,5806,129.5399932861328000,20.3118991851806640,36.6593017578125000,236.4694061279297000,79.1078109741211000,20.3050308227539060,29.6637992858886720,65,108,94,84,66,10302,2146959396,2147546779,2147332086,2147443730,2147309988,2148124388,2149705344,2147251053,2089,-1,8,14010
1372181230,5809,125.7799987792968800,20.3715991973876950,36.6631011962890600,236.3088989257812500,76.7384185791015600,20.3771095275878900,29.6410198211669920,65,108,93,82,65,10305,2146958125,2147550692,2147342774,2147440758,2147339254,2148205613,2149814656,2147260562,1804,-2,8,28957
1372181321,5804,122.0500030517578100,20.7028007507324220,36.6730003356933600,235.5242004394531200,66.9253768920898400,20.6758499145507800,29.5512504577636720,59,103,94,81,65,10308,2146958436,2147550409,2147340489,2147443776,2147357293,2148204269,2149779099,2147259702,1377,-1,9,65114
1372181439,5803,118.2099990844726600,20.8486003875732420,36.6861000061035160,232.0361938476562500,61.5176391601562500,20.8406391143798830,29.6468505859375000,55,98,92,80,65,10308,2146959131,2147547547,2147332589,2147440704,2147363721,2148144704,2149623634,2147251693,2535,-2,8,7483
1372181542,5802,114.8899993896484400,20.8864994049072270,36.6902008056640600,230.7366027832031200,60.2274208068847660,20.8799800872802730,29.6926994323730470,56,99,92,81,65,10318,2146965266,2147552621,2147342546,2147438628,2147417133,2148308452,2149872950,2147266816,2261,-1,8,12540
1372181645,5802,111.0000000000000000,21.0167007446289060,36.6773986816406250,231.9225006103515600,56.1211090087890600,21.0052204132080080,29.5829601287841800,57,98,92,82,64,10312,2146962358,2147572845,2147380123,2147440649,2147620288,2149003574,2151012388,2147342656,2058,-2,9,2325
1372181753,5802,106.9400024414062500,21.2238006591796880,36.6680984497070300,236.6015930175781200,49.3609809875488300,21.2115592956542970,29.2761402130126950,58,99,92,81,64,10308,2146969106,2147584502,2147396918,2147439085,2147751076,2149321737,2151489636,2147377755,2056,-2,9,21568
1372181856,5805,102.6500015258789000,21.3712997436523440,36.6619987487793000,239.2801055908203000,44.5796203613281250,21.3576297760009770,29.0916900634765620,58,101,92,81,64,10309,2146972690,2147590729,2147415488,2147440813,2147889920,2149609773,2151888018,2147415085,1419,-2,9,31609
1372181959,5804,98.7200012207031200,21.4757995605468750,36.6493988037109400,241.5906066894531200,41.1941909790039060,21.4611206054687500,28.9436893463134770,58,103,92,83,64,10309,2146974866,2147613659,2147454829,2147445138,2148158006,2150308790,2152949348,2147493366,861,-1,9,13956
1372182043,5803,94.9300003051757800,21.6389999389648440,36.6721992492675800,240.5997009277343800,35.6822090148925800,21.6297206878662100,28.9189491271972660,66,106,94,82,63,10303,2146979858,2147624877,2147474020,2147445284,2148378742,2150744246,2153554770,2147551881,1325,-1,8,42298
1372182098,5802,91.9199981689453100,21.7318000793457030,36.6632995605468750,236.1490020751953000,32.3898200988769500,21.7305107116699220,29.0815296173095700,72,105,91,82,63,10300,2146981878,2147636041,2147489837,2147445531,2148562221,2151088850,2154033408,2147601755,1399,-2,9,30555
1372182153,5805,89.1800003051757800,21.8267002105712900,36.6523017883300800,236.8002014160156200,29.6885108947753900,21.8132305145263670,29.0168895721435550,75,105,93,82,63,10296,2146987629,2147650395,2147510774,2147446747,2148757421,2151453430,2154537728,2147656896,1196,-1,9,58218
1372182208,5804,86.7399978637695300,21.8265991210937500,36.6453018188476560,239.4656066894531200,29.4848308563232420,21.8194694519042970,28.8922691345214840,71,107,94,82,63,10293,2146988690,2147660443,2147531803,2147445037,2148985673,2151862052,2155100416,2147715492,1449,-1,9,12857
1372182263,5805,84.3399963378906200,21.9734001159667970,36.6245994567871100,241.7028045654297000,23.3760604858398440,22.0067005157470700,28.7139492034912100,61,104,94,82,63,10300,2146997476,2147678116,2147559689,2147449627,2149301970,2152455954,2155897874,2147793700,1565,-2,8,18260
1372182321,5805,82.2799987792968800,22.2430000305175780,36.6445007324218750,242.3348999023437500,17.2003192901611330,22.1961708068847660,28.6080703735351560,74,107,93,84,64,10287,2147004086,2147695826,2147594532,2147452425,2149637010,2153056192,2156663186,2147876452,1127,-1,9,45306
1372182376,5808,80.7900009155273400,22.3201007843017580,36.6407012939453100,242.8638000488281200,14.5468997955322270,22.2776393890380860,28.5512199401855470,85,110,95,83,63,10276,2147004845,2147699474,2147605586,2147453942,2149778834,2153245824,2156899446,2147911862,1003,-1,9,44131
1372182443,5806,79.3899993896484400,22.3983993530273440,36.6397018432617200,245.1002044677734400,11.7248096466064450,22.3643302917480470,28.4165897369384770,86,115,93,83,64,10271,2147011995,2147719387,2147636224,2147458002,2150050194,2153763428,2157644928,2147990326,937,-1,8,51061
1372182558,5804,77.5999984741211000,22.5074005126953120,36.6363983154296900,245.6710968017578000,7.8582739830017090,22.4831695556640620,28.3432292938232420,88,114,95,83,63,10267,2147017508,2147734162,2147657874,2147453312,2150336054,2154228077,2158344493,2148082139,1562,-1,9,14616
1372182689,5807,75.1299972534179700,22.7304992675781250,36.6523017883300800,241.7263031005859400,0.3252356946468353,22.7149505615234380,28.4241409301757800,105,119,94,84,64,10247,2147022930,2147746825,2147675620,2147458715,2150701010,2154638692,2158843035,2148185572,1746,-1,9,65143
1372182756,5803,73.2300033569336000,22.8029994964599600,36.6571998596191400,238.1190032958984400,-2.1796789169311523,22.7920894622802730,28.5555305480957030,109,122,96,85,64,10235,2147028873,2147757238,2147705033,2147466861,2150967844,2154927661,2159216914,2148273097,1054,-2,9,7824
1372182835,5805,71.1399993896484400,22.9102993011474600,36.6637001037597660,236.8843994140625000,-5.7628779411315920,22.9025001525878900,28.5670394897460940,122,122,97,85,65,10229,2147043428,2147794441,2147775222,2147478354,2151709001,2156082560,2160831424,2148502921,955,-2,9,45672
1372182914,5806,69.0999984741211000,22.9776992797851560,36.6586990356445300,236.5157012939453000,-8.0847692489624020,22.9740905761718750,28.5548591613769530,124,127,95,84,64,10212,2147059995,2147820150,2147828763,2147484178,2152360530,2156964205,2161960393,2148702217,962,-2,9,62399
1372182998,5805,66.5400009155273400,23.1931991577148440,36.6579017639160160,236.5565032958984400,-14.6571502685546880,23.1769008636474600,28.4706497192382800,141,130,97,86,64,10183,2147076224,2147860818,2147893229,2147500544,2153316013,2158126226,2163415012,2148984265,1048,-1,9,18542
1372183053,5806,64.4300003051757800,23.3243007659912100,36.6440010070800800,237.4102020263672000,-18.5159091949462900,23.2961006164550780,28.3838806152343750,157,133,99,87,64,10171,2147097444,2147902720,2147957485,2147510582,2154179145,2159203437,2164809472,2149260973,1153,-1,9,49426
1372183108,5803,62.4900016784668000,23.5058994293212900,36.6388015747070300,239.8361968994140600,-24.2718105316162100,23.4740695953369140,28.2028198242187500,177,137,98,85,65,10144,2147115190,2147934656,2148010870,2147516086,2155020050,2160214656,2166131876,2149547611,1417,-1,9,14685
1372183163,5803,60.8800010681152340,23.5090999603271500,36.5956001281738300,239.7033996582031200,-25.0712795257568360,23.4988098144531250,28.1988506317138670,186,136,98,86,63,10110,2147125924,2147971373,2148073517,2147531693,2155817526,2161157613,2167322825,2149824987,1311,-2,9,57291
1372183230,5803,59.3600006103515600,23.6077003479003900,36.5345001220703100,247.6389007568359400,-27.7685604095459000,23.5822906494140620,27.8163795471191400,193,137,99,86,63,10113,2147152448,2148012150,2148151341,2147552274,2156697856,2162248054,2168587574,2150097161,690,-1,8,31908
1372183337,5806,56.9500007629394500,23.7262001037597660,36.5595016479492200,253.8818054199218800,-31.8885402679443360,23.7098999023437500,27.5009098052978500,194,139,99,88,64,10099,2147176411,2148055917,2148150006,2147534848,2158127460,2163832987,2170108288,2150473590,3197,-1,9,64757
1372183392,5805,55.1500015258789060,23.9200000762939450,36.5541000366210940,251.8748016357422000,-38.1347007751464840,23.9035797119140620,27.5088100433349600,190,137,99,87,64,10068,2147199094,2148098422,2148194304,2147541229,2159238738,2164961408,2171094555,2150782409,2443,-2,9,44164
1372183534,5802,52.3199996948242200,24.1546993255615230,36.5852012634277340,258.6357116699219000,-45.4673004150390600,24.1312808990478500,27.1391105651855470,197,139,100,87,64,10018,2147245549,2148183643,2148301321,2147556059,2161227355,2167091876,2173152612,2151345526,2410,-2,9,12135
1372183569,5802,51.7999992370605500,24.2329998016357420,36.5730018615722660,254.2021942138672000,-47.9881515502929700,24.2096405029296880,27.2911205291748050,200,144,99,88,65,10000,2147261293,2148218944,2148342262,2147562898,2161979648,2168057206,2174200420,2151572297,2507,-2,9,59462
1372183683,5806,49.8300018310546900,24.5631999969482420,36.5443000793457000,245.5310058593750000,-59.0470504760742200,24.5539493560791000,27.5235996246337900,192,152,102,90,64,9959,2147351945,2148415597,2148635264,2147619190,2165656960,2172538532,2179122633,2152637449,1758,-2,9,42507
1372183886,5803,47.9399986267089840,24.8038005828857420,36.4798011779785160,278.1744995117187500,-66.6949615478515600,24.7925701141357420,26.1229000091552730,148,154,103,90,63,10007,2147483894,2148702025,2149042276,2147701449,2170788150,2178898706,2185885010,2154023460,1427,-2,9,13482
1372183986,5805,45.8600006103515600,24.8894004821777340,36.4580001831054700,291.7334899902344000,-69.7171783447265600,24.8869800567626950,25.5956497192382800,104,143,100,90,61,10070,2147608502,2148975451,2149378614,2147791323,2175771062,2184851657,2191487762,2155377545,1200,-2,9,48748
1372184059,5804,43.7000007629394500,24.9501991271972660,36.4420013427734400,294.0820922851562500,-71.9409179687500000,24.9564990997314450,25.4871597290039060,86,134,100,89,61,10111,2147760896,2149296036,2149750912,2147876544,2181891154,2192395730,2198646281,2156949229,1101,-2,9,9142
1372184210,5807,41.9799995422363300,25.0536003112792970,36.4208984375000000,324.4573974609375000,-75.4721908569336000,25.0669593811035160,24.4438495635986330,75,133,100,90,62,10128,2147903186,2149599625,2150031040,2147925650,2188108013,2199908150,2204703954,2158037101,1027,-2,9,51711
1372184336,5803,39.7000007629394500,25.1368007659912100,36.3799018859863300,302.2803039550781000,-77.9888076782226600,25.1457405090332030,25.1348590850830080,66,127,98,87,61,10152,2148205394,2150212909,2150579382,2148020854,2201675126,2216561718,2218439433,2160671990,793,-1,9,54645
1372184396,5804,37.7200012207031250,25.1464996337890620,36.2907981872558600,296.1010131835937500,-79.6005325317382800,25.1962203979492200,25.3272705078125000,64,125,100,87,60,10160,2148460077,2150705289,2151020690,2148099501,2214396306,2231952274,2231537865,2163288438,693,-1,8,59892
1372184469,5804,35.7200012207031250,25.3756008148193360,36.2956008911132800,304.6594848632812500,-85.3296737670898400,25.3758201599121100,24.9695091247558600,63,122,97,88,61,10159,2148637796,2151021357,2151141924,2148006811,2222253970,2240689828,2237691410,2164486034,167,-1,9,22897